Vertical_Velocity
1 1 -0 -1 0 -2 2 -1 -5 2 -1 -6 0 -26 -27 -2 -1 -1 3 7 0 1 -5 -4 -10 1 -1 10 114 17 8 -3 7 2 6 0 23 8 5 7 7 5 -2
-4 -0 -1 -1 -0 2 3 1 -5 -3 -6 -7 -2 -4 2 -9 -11 -5 0 1 -2 -3 3 1 -5 -1 8 -1 9 15 4 -4 4 -3 2 3 3 12 15 -1 1 1 -0
3 1 -1 -1 1 -1 -3 2 -4 -3 -2 -1 -6 -1 -2 -6 -0 1 0 0 1 -1 0 -1 -3 -2 -1 -2 -1 1 -6 -5 3 -1 1 9 8 3 -1 -1 -3 -1 1
2 -1 -4 -5 -8 -4 0 -2 0 -5 0 -0 2 0 -1 0 1 -2 0 5 -0 3 -1 -2 -0 -0 -1 2 -3 0 3 -2 1 -2 1 3 1 2 11 1 2 1 0
-3 -1 -0 1 -3 -3 6 1 3 -2 -6 2 -1 1 2 2 4 2 3 3 6 4 4 -4 -2 0 -2 -1 5 -3 1 2 0 1 -2 -5 -1 0 -3 -2 1 2 1
-2 2 2 2 -1 -5 -2 -1 -1 3 2 -11 -8 -6 -5 -4 -1 -3 -2 -2 2 -3 1 -3 2 4 5 -0 4 4 0 3 4 3 -0 -3 -1 -2 2 -2 -0 2 0
-0 -1 -2 -0 -0 -1 -0 -3 3 -5 -3 2 2 4 2 -2 -2 -7 -6 -2 -1 -0 -3 -0 4 1 -4 -3 -1 -2 2 -1 3 -1 4 1 2 -2 -1 2 -1 1 1
-2 -1 -3 -2 -5 -2 -0 2 -4 1 1 3 4 -2 -6 -3 -8 -1 3 -1 -1 0 -1 -0 4 3 1 10 10 13 1 2 1 1 2 1 1 0 2 0 2 -3 2
-2 -0 -0 -2 -3 -6 -8 1 8 2 -1 -1 -1 -1 7 9 5 2 -0 -3 -2 2 3 1 -0 -10 -8 4 1 14 7 7 -2 -1 1 3 2 3 -0 -1 -1 -0 0
-0 -1 -0 -4 -4 -3 -9 -7 -4 2 1 -1 -3 -2 -3 -2 -2 -1 2 5 0 -4 -11 -3 0 -6 1 -2 -4 -0 3 4 6 4 1 1 -1 2 2 -0 1 2 -0
-2 -1 -2 -3 -3 -3 2 1 -4 1 -1 0 2 2 4 4 4 -0 2 -4 -1 3 3 -1 1 -1 4 2 2 -0 -1 1 10 5 2 3 -0 -1 -0 -0 -1 -1 2
-0 -1 -1 -2 -3 -5 -1 -0 -1 -4 -3 -2 -2 -2 -5 -5 -2 -6 -7 -2 -2 -2 -5 -6 -8 0 -0 2 1 -1 -1 2 1 12 3 4 -1 1 1 4 1 4 1
-2 -3 -2 1 3 -2 0 2 4 3 3 4 4 -0 -2 -1 -0 -5 -6 -3 -2 1 -1 -4 -11 3 -4 -6 2 -1 -0 -1 1 -1 5 10 2 3 4 5 5 -1 -2
-0 -1 -2 -2 2 3 0 -1 0 0 -1 0 5 5 -1 1 1 -7 -5 -7 -1 7 -1 -7 -10 -1 -3 2 -1 8 -2 0 -2 2 -1 -1 9 2 4 4 18 2 -4
2 1 -3 -3 -3 -4 -4 2 2 4 6 3 2 1 -0 1 -2 -5 -5 -2 -8 -4 3 3 -3 2 -1 4 3 -0 -2 5 3 0 2 1 1 -0 3 2 4 2 8
2 -1 2 3 7 8 5 2 -3 1 5 0 1 4 4 3 -2 -8 -3 -6 -8 -9 -7 -1 1 5 -4 6 -0 -2 4 2 -0 0 2 -1 -1 -3 -0 2 -5 -0 2
4 3 -0 2 2 2 1 4 3 -1 2 5 6 1 -0 6 -1 -5 -4 -6 -4 -5 -5 -8 0 1 4 4 3 -4 5 2 -0 -0 1 2 -2 0 2 2 -3 -2 0
-2 -4 -4 -3 -2 -4 -2 3 2 -4 -3 -5 -1 -2 -0 -3 4 9 -7 -3 -2 -0 -4 -5 -2 8 6 11 2 -2 -3 1 4 1 -0 1 3 2 2 2 -3 2 1
-14 -12 -5 -1 -4 -3 1 -3 -0 2 2 7 6 0 1 -3 -5 -2 6 2 -1 2 1 -2 -1 0 2 7 2 4 6 -3 -2 -1 -1 0 2 3 3 1 -1 1 6
2 -1 -2 -3 -2 -2 0 1 -3 -2 -6 -2 0 1 3 -2 -3 -2 -0 -0 2 -0 5 2 -3 0 1 2 5 6 2 2 -2 -0 -1 -0 -1 4 5 4 -2 3 2
-3 3 2 -5 1 -3 1 -3 -6 -8 0 2 -2 -4 -5 -2 -2 -1 -4 -2 0 1 2 4 3 -0 2 1 1 1 4 0 -0 -1 -3 -3 -2 6 5 2 1 2 -0
-1 -2 -2 -2 -5 15 18 1 4 2 -3 -4 -4 -4 -1 0 1 1 -1 1 -1 1 2 -0 3 5 3 1 1 -1 1 4 2 -1 -3 -2 1 6 4 3 2 0 2
-5 2 10 21 0 -1 0 1 -2 -4 -5 -2 4 4 2 1 1 -1 2 3 1 -1 -0 1 2 1 2 2 1 -0 2 0 3 -3 -2 -3 4 7 -0 -1 -2 -0 1
7 5 -1 6 13 5 7 3 1 0 1 -1 -1 3 2 2 0 3 -0 1 3 1 1 -2 -1 -2 -1 2 4 2 -2 -3 4 2 -4 -3 4 5 -1 -2 -2 0 -1
7 5 7 1 -5 -4 0 2 2 1 1 1 3 3 1 -0 1 1 -1 -3 -1 -0 1 -1 1 -1 -1 -1 3 1 5 -1 -3 5 -5 3 4 -1 1 -1 -1 0 1
3 4 4 5 1 4 -1 -2 1 2 1 1 1 1 2 0 -0 0 -0 0 0 -1 -1 -2 2 3 1 1 0 0 2 2 3 -1 1 2 -1 -4 -3 -1 2 -2 -0
Height
5848 5845 5842 5840 5837 5834 5831 5828 5823 5818 5812 5809 5807 5805 5809 5805 5802 5801 5800 5799 5799 5800 5801 5800 5800 5796 5798 5796 5784 5794 5795 5796 5797 5798 5799 5800 5798 5802 5804 5804 5804 5804 5806
5845 5841 5838 5836 5834 5831 5828 5823 5818 5814 5811 5809 5807 5805 5803 5802 5800 5800 5798 5797 5796 5795 5795 5795 5793 5792 5793 5793 5788 5788 5789 5790 5789 5790 5792 5795 5795 5795 5793 5796 5798 5799 5800
5841 5837 5834 5832 5830 5827 5823 5818 5816 5810 5807 5804 5805 5803 5800 5797 5794 5793 5790 5792 5793 5791 5790 5789 5787 5786 5786 5786 5786 5785 5784 5784 5784 5784 5784 5785 5787 5786 5787 5788 5790 5792 5794
5837 5833 5830 5828 5826 5824 5820 5814 5810 5808 5805 5802 5799 5796 5793 5791 5789 5787 5785 5783 5787 5785 5784 5784 5782 5780 5779 5778 5778 5776 5777 5775 5776 5776 5777 5777 5777 5776 5777 5780 5782 5784 5785
5832 5829 5826 5822 5819 5817 5815 5810 5805 5802 5802 5797 5795 5793 5791 5787 5784 5782 5780 5779 5777 5775 5775 5775 5775 5773 5772 5770 5768 5768 5768 5767 5767 5768 5767 5767 5768 5769 5769 5769 5771 5774 5776
5828 5824 5820 5816 5811 5808 5806 5804 5799 5795 5791 5791 5789 5786 5785 5783 5781 5779 5776 5773 5771 5769 5768 5766 5765 5764 5762 5760 5759 5758 5758 5757 5758 5756 5758 5759 5760 5760 5761 5760 5760 5762 5765
5822 5819 5814 5810 5806 5802 5799 5796 5794 5789 5785 5782 5780 5778 5776 5775 5773 5773 5771 5767 5765 5763 5760 5758 5755 5754 5753 5751 5751 5748 5747 5746 5747 5746 5747 5750 5748 5749 5750 5752 5752 5752 5754
5816 5812 5809 5804 5800 5795 5792 5788 5784 5780 5777 5775 5772 5770 5769 5767 5764 5761 5759 5758 5756 5753 5750 5748 5746 5744 5744 5742 5741 5740 5737 5736 5736 5735 5736 5738 5738 5738 5739 5741 5743 5743 5744
5809 5806 5802 5798 5794 5789 5785 5779 5773 5770 5767 5765 5762 5759 5756 5754 5752 5750 5749 5748 5746 5744 5741 5738 5734 5733 5731 5730 5730 5728 5726 5725 5723 5725 5724 5725 5727 5728 5728 5729 5730 5732 5734
5802 5799 5795 5791 5787 5782 5776 5772 5767 5764 5759 5756 5752 5749 5747 5744 5742 5741 5740 5736 5734 5732 5730 5728 5724 5721 5719 5717 5716 5715 5714 5713 5712 5711 5712 5713 5712 5715 5717 5718 5718 5720 5721
5795 5791 5787 5782 5777 5773 5768 5763 5760 5755 5751 5746 5742 5738 5736 5733 5731 5730 5728 5726 5723 5719 5716 5714 5713 5711 5707 5702 5700 5699 5700 5699 5699 5699 5698 5698 5700 5701 5703 5705 5706 5708 5709
5786 5782 5776 5771 5767 5763 5759 5755 5750 5746 5742 5736 5732 5728 5724 5721 5718 5715 5714 5713 5710 5707 5703 5699 5699 5697 5693 5690 5686 5684 5683 5684 5684 5686 5685 5685 5685 5687 5689 5692 5692 5695 5696
5777 5772 5767 5762 5757 5753 5749 5745 5741 5736 5732 5728 5723 5719 5715 5712 5709 5705 5703 5700 5697 5693 5688 5684 5682 5680 5676 5673 5671 5668 5667 5667 5669 5670 5671 5671 5671 5673 5676 5678 5680 5681 5683
5766 5761 5756 5752 5748 5743 5739 5734 5729 5725 5722 5718 5713 5708 5704 5700 5695 5691 5690 5688 5683 5677 5673 5669 5665 5663 5660 5656 5654 5652 5651 5651 5652 5654 5655 5655 5658 5660 5663 5663 5667 5669 5671
5755 5750 5744 5740 5735 5730 5725 5721 5717 5713 5708 5704 5700 5695 5689 5685 5680 5677 5674 5670 5666 5663 5658 5651 5647 5647 5644 5641 5637 5636 5635 5635 5636 5637 5640 5642 5644 5646 5649 5650 5650 5654 5658
5743 5738 5733 5728 5723 5717 5712 5708 5704 5701 5697 5691 5686 5681 5676 5669 5665 5663 5658 5653 5649 5645 5643 5640 5635 5631 5628 5626 5625 5623 5623 5621 5621 5623 5624 5627 5629 5632 5634 5635 5638 5640 5644
5732 5727 5722 5717 5710 5705 5700 5695 5690 5686 5683 5678 5673 5668 5662 5657 5650 5646 5641 5636 5631 5627 5624 5623 5622 5617 5615 5614 5613 5613 5612 5611 5611 5610 5612 5613 5616 5619 5621 5622 5624 5627 5630
5719 5713 5706 5700 5695 5690 5686 5682 5676 5671 5667 5662 5657 5652 5647 5643 5638 5631 5625 5619 5613 5610 5607 5606 5605 5603 5602 5601 5601 5600 5600 5600 5600 5600 5601 5602 5604 5607 5608 5609 5611 5615 5617
5700 5695 5690 5686 5681 5675 5670 5666 5662 5657 5652 5647 5642 5637 5632 5628 5623 5615 5610 5603 5598 5595 5591 5589 5590 5589 5588 5588 5589 5589 5589 5588 5588 5589 5590 5591 5593 5595 5596 5598 5600 5602 5603
5685 5678 5673 5669 5663 5659 5655 5649 5645 5641 5636 5631 5626 5621 5615 5610 5603 5598 5594 5589 5584 5580 5579 5576 5576 5575 5574 5575 5576 5576 5576 5576 5576 5577 5578 5580 5582 5584 5584 5586 5588 5590 5591
5671 5665 5659 5653 5648 5641 5635 5631 5626 5622 5619 5613 5609 5604 5597 5591 5586 5581 5578 5574 5570 5568 5566 5565 5564 5562 5562 5561 5562 5562 5562 5562 5562 5564 5565 5567 5570 5571 5572 5573 5574 5576 5577
5656 5652 5645 5638 5629 5624 5622 5616 5612 5606 5601 5596 5589 5584 5579 5575 5571 5567 5563 5560 5559 5556 5554 5553 5552 5551 5550 5549 5548 5547 5547 5548 5548 5548 5550 5553 5556 5557 5557 5557 5559 5561 5563
5640 5636 5631 5623 5618 5613 5609 5601 5596 5592 5586 5580 5573 5568 5564 5560 5557 5553 5551 5548 5546 5544 5542 5540 5539 5538 5536 5534 5534 5533 5532 5531 5532 5532 5534 5537 5540 5541 5540 5542 5544 5547 5550
5626 5619 5615 5610 5602 5594 5590 5583 5577 5571 5567 5562 5558 5554 5549 5546 5543 5540 5538 5535 5533 5530 5528 5526 5524 5522 5521 5520 5518 5517 5516 5516 5516 5517 5518 5521 5523 5524 5525 5527 5530 5532 5535
5612 5605 5597 5591 5584 5577 5573 5567 5562 5557 5552 5547 5543 5539 5536 5534 5531 5528 5526 5523 5520 5517 5514 5512 5509 5506 5504 5502 5501 5499 5500 5499 5500 5500 5501 5505 5506 5507 5510 5513 5516 5518 5520
5596 5588 5581 5574 5568 5560 5554 5551 5546 5541 5537 5533 5530 5527 5525 5522 5519 5517 5514 5510 5508 5505 5501 5498 5495 5491 5487 5484 5482 5481 5481 5481 5482 5482 5485 5487 5487 5490 5494 5498 5501 5504 5506